Regional Weather Roundup
Issued by NWS

Home | Current Version | Previous Version | Graphics & Text | Print | Product List | Glossary On
Versions: 1 2 3 4 5 6 7 8 9 10 11 12 13 14 15 16 17 18 19 20 21 22 23 24 25 26 27 28 29 30 31 32 33 34 35 36 37 38 39 40 41 42 43 44 45 46 47 48 49 50
000
ASUS43 KIND 241900
RWRIN

WEATHER ROUNDUP FOR INDIANA
NATIONAL WEATHER SERVICE INDIANAPOLIS IN
300 PM EDT SUN SEP 24 2017

NOTE: "FAIR" INDICATES FEW OR NO CLOUDS BELOW 12,000 FEET WITH NO
SIGNIFICANT WEATHER AND/OR OBSTRUCTIONS TO VISIBILITY.

* - STATION DOES NOT REPORT WEATHER SUCH AS PRECIPITATION OR FOG.

+ - STATION NOT QUALITY CONTROLLED BY THE NATIONAL WEATHER SERVICE.
    USE DATA WITH CAUTION...ESPECIALLY DEWPOINT AND RELATIVE
    HUMIDITY OBSERVATIONS.

INZ001>003-010>013-019-020-242000-
NORTHWEST INDIANA

CITY           SKY/WX    TMP DP  RH WIND       PRES   REMARKS
GARY /AIRPORT/ MOSUNNY   91  50  24 SE7       30.05F

$$

LMZ046-743>745-242000-
SOUTHERN LAKE MICHIGAN

STATION/POSITION TIME  TEMP    WIND        PRES    WAVE
                       AIR SEA DIR/SP/G            HT
                 (UTC) (F)     (DEG/KT/KT) (MB)    (FT)
BURNS HARBOR     1840   87     220/  6/ 10 1017.9F
MICHIGAN CITY    1830   87     130/  8/ 10   N/A
5NW MICH CITY    1850   77 74   30/  6/  8   N/A     1

$$

INZ004-005-014>016-021>024-242000-
NORTH CENTRAL INDIANA

CITY           SKY/WX    TMP DP  RH WIND       PRES   REMARKS
GOSHEN         SUNNY     89  54  30 S12       30.09F
SOUTH BEND     SUNNY     89  57  33 S14       30.08F

$$

INZ006>009-017-018-025>027-242000-
NORTHEAST INDIANA

CITY           SKY/WX    TMP DP  RH WIND       PRES   REMARKS
FORT WAYNE     MOSUNNY   88  57  34 SE8       30.09F
KENDALLVILLE + SUNNY     87  60  40 SE7       30.11F

$$

INZ028-029-035-036-043>045-051>053-242000-
WEST CENTRAL INDIANA

CITY           SKY/WX    TMP DP  RH WIND       PRES   REMARKS
GREENCASTLE +  SUNNY     88  52  29 S7        30.06F
LAFAYETTE      MOSUNNY   87  63  44 E7        30.04F
TERRE HAUTE    SUNNY     91  57  31 MISG      30.04F

$$

INZ030>032-037>040-046>048-054>057-064-065-242000-
CENTRAL INDIANA

CITY           SKY/WX    TMP DP  RH WIND       PRES   REMARKS
COLUMBUS       SUNNY     90  45  20 E6        30.05F
GREENWOOD *+   MOSUNNY   93  58  31 E3        30.07F
INDIANAPOLIS   MOSUNNY   89  57  33 SE7G20    30.06F
-EAGLE CREEK   SUNNY     90  55  30 S10       30.06F
KOKOMO +       SUNNY     88  59  37 E8        30.08F
MT COMFORT *+  SUNNY     90  55  31 E9        30.08F
SHELBYVILLE    MOSUNNY   92  53  26 E10       30.05F

$$

INZ033-034-041-042-049-050-058-059-242000-
EAST CENTRAL INDIANA

CITY           SKY/WX    TMP DP  RH WIND       PRES   REMARKS
MUNCIE         SUNNY     92  52  25 SE5       30.07F
RICHMOND +     SUNNY     86  52  30 S9        30.11F

$$

INZ060-061-067>069-081>083-085>088-242000-
SOUTHWEST INDIANA

CITY           SKY/WX    TMP DP  RH WIND       PRES   REMARKS
EVANSVILLE     SUNNY     89  65  44 E3        30.02F
HUNTINGBURG +  SUNNY     88  68  51 NE8       30.03F

$$

INZ062-063-066-070>080-084-089>092-242000-
SOUTH CENTRAL AND SOUTHEAST INDIANA

CITY           SKY/WX    TMP DP  RH WIND       PRES   REMARKS
BLOOMINGTON    MOSUNNY   90  57  32 E10       30.06F
MADISON *+     SUNNY     88  54  31 SE6       30.09F
SEYMOUR +      SUNNY     91  59  33 SE6       30.05F

$$





USA.gov is the U.S. government's official web portal to all federal, state and local government web resources and services.